[[{"header":{"parameterUnit":"m.s-1","parameterCategory":1,"la1":30.2991,"la2":30.254,"lo1":-89.0895,"lo2":-89.0444,"dy":0.0017,"dx":0.0017,"nx":28,"ny":28,"refTime":"2026-02-04T09:00:00:Z","depth":0,"parameterNumber":2,"parameterNumberName":"U-component_of_WINDS"},"data":[0,0,0,0,0,0,0,0,0,0,0,0,0,0,0,0,0,0,0,0,0,0,0,0,0,0,0,0,0,0,0,0,0,0,0,0,0,0,0,0,0,0,0,0,0,0,0,0,0,0,0,0,0,0,0,0,0,0,3.5398,3.54,0,3.5553,3.5554,3.5556,3.5494,3.549,3.5486,3.5483,3.5643,3.565,3.5658,0,0,0,0,0,0,0,0,0,0,0,0,0,3.5051,3.5058,3.5398,3.54,3.5402,3.5552,3.5554,3.5557,3.5494,3.549,3.5486,3.5481,3.5641,3.565,3.5659,0,0,0,0,0,0,0,0,0,0,0,0,0,3.5203,3.506,3.5398,3.5389,3.539,3.5552,3.5555,3.5557,3.5495,3.549,3.5484,3.5479,3.5638,3.5649,3.566,3.584,0,0,3.5695,3.57,0,0,0,0,0,0,0,0,3.5195,3.5216,3.5388,3.539,3.5391,3.5498,3.5491,3.5652,3.5497,3.5455,3.5483,3.5477,3.5599,3.5614,3.5655,3.5848,3.5855,3.5696,3.5703,3.5708,3.5711,0,0,0,0,0,0,0,3.5184,3.5209,3.5459,3.5391,3.5393,3.5378,3.5393,3.5521,3.5556,3.5458,3.5454,3.5473,3.5599,3.5644,3.5658,3.5857,3.5696,3.5706,3.5713,3.5718,3.6207,3.6213,0,0,0,0,0,0,3.5173,3.5201,3.5454,3.5464,3.5277,3.5389,3.5406,3.5469,3.5555,3.5562,3.5478,3.547,3.5627,3.5645,3.5663,3.5881,3.5708,3.5719,3.5725,3.6201,3.6208,3.6215,0,0,0,0,0,0,3.5166,3.5196,3.5448,3.5331,3.5362,3.54,3.5472,3.5475,3.552,3.5569,3.5575,3.5517,3.5623,3.5647,3.5797,3.5886,3.5724,3.5734,3.6194,3.6203,3.6212,3.6317,0,0,0,0,0,0,3.5156,3.5194,3.5263,3.5333,3.5369,3.5579,3.5477,3.5482,3.554,3.5531,3.5608,3.5615,3.5621,3.578,3.5808,3.5899,3.5743,3.6186,3.6198,3.6209,3.6306,3.6329,3.6348,0,0,0,0,0,3.5144,3.5287,3.5266,3.5297,3.5455,3.5584,3.5604,3.5607,3.5547,3.5617,3.5648,3.5613,3.5871,3.5796,3.5827,3.5922,3.618,3.6195,3.6208,3.6297,3.6324,3.6348,0,0,0,0,0,0,3.5226,3.5296,3.5274,3.5443,3.5508,3.5573,3.5661,3.5637,3.572,3.5709,3.5709,3.5727,3.5882,3.5917,3.5832,3.6102,3.6017,3.6037,3.6073,3.61,3.6121,3.611,3.5753,0,0,0,0,0,3.5264,3.5362,3.5418,3.5562,3.5595,3.5623,3.5679,3.5676,3.5743,3.5771,3.5813,3.588,3.5977,3.604,3.6132,3.631,3.6327,3.6391,3.6412,3.643,3.6448,3.6546,3.6575,3.626,3.626,3.626,0,0,3.5343,3.5393,3.5455,3.558,3.5629,3.5732,3.5646,3.5758,3.5835,3.5788,3.5932,3.5966,3.6041,3.6206,3.6281,3.624,3.6538,3.6447,3.646,3.6469,3.6563,3.6593,3.6619,3.6269,3.6268,3.6266,0,0,3.5539,3.5587,3.5712,3.5764,3.584,3.5858,3.5888,3.5957,3.5977,3.6122,3.6089,3.618,3.6346,3.6401,3.645,3.6668,3.6639,3.6698,3.6809,3.6905,3.693,3.6952,3.703,3.7058,3.6716,3.6716,3.6716,0,3.5628,3.5781,3.578,3.5895,3.5951,3.5913,3.6041,3.6091,3.6193,3.6233,3.6186,3.6393,3.6441,3.6619,3.6672,3.6713,3.6749,3.669,3.6926,3.6948,3.6969,3.7044,3.7073,3.6723,3.6722,3.6721,3.6721,0,3.5887,3.5993,3.6086,3.6185,3.6252,3.6373,3.6391,3.6458,3.6449,3.6472,3.662,3.6676,3.6778,3.682,3.6812,3.6998,3.697,3.6924,3.6839,3.7005,3.7076,3.7105,3.6733,3.673,3.6728,3.6726,0,0,3.6141,3.6238,3.6272,3.6317,3.6398,3.6481,3.66,3.6699,3.6758,3.683,3.693,3.7072,3.703,3.7087,3.7085,3.7169,3.7339,3.7113,3.7115,3.7154,3.7547,3.7582,3.7615,3.7319,3.7325,3.7329,3.7541,0,3.6344,3.6553,3.6556,3.6748,3.6847,3.6811,3.6915,3.6977,3.7001,3.7089,3.7116,3.7216,3.7153,3.7187,3.7269,3.7301,3.7418,3.7285,3.7414,3.7419,3.7397,3.7651,3.7688,3.7886,3.7569,3.7573,3.7577,0,3.661,3.669,3.6892,3.6959,3.7001,3.7094,3.7186,3.727,3.7339,3.7351,3.7414,3.74,3.7522,3.7433,3.7602,3.7512,3.7564,3.7588,3.7596,3.7609,3.7508,3.7672,3.7949,3.7979,3.762,3.7616,3.7613,0,3.6776,3.6934,3.7075,3.7115,3.7197,3.7263,3.7301,3.7364,3.7424,3.7504,3.7543,3.7637,3.7689,3.7762,3.7774,3.7707,3.7944,3.7855,3.7958,3.7958,3.801,3.8007,3.83,3.8043,3.8042,3.8042,3.8041,0,3.7004,3.7129,3.7151,3.7238,3.7378,3.738,3.7518,3.755,3.7607,3.77,3.7675,3.7763,3.7773,3.7864,3.7874,3.8013,3.8037,3.805,3.8052,3.8053,3.8052,3.8088,3.8075,3.805,3.8048,3.8046,3.8045,0,3.7213,3.7233,3.7385,3.7449,3.7469,3.7569,3.7624,3.7708,3.7729,3.7848,3.7876,3.791,3.8016,3.8035,3.816,3.8166,3.8333,3.832,3.831,3.8308,3.8411,3.8401,3.8738,3.8783,3.8496,3.8499,3.8501,0,3.7358,3.7453,3.7528,3.7588,3.7629,3.7726,3.7787,3.7793,3.7857,3.7943,3.8017,3.812,3.8203,3.8375,3.8411,3.8507,3.8496,3.8608,3.8511,3.8509,3.8499,3.8494,3.8504,3.8627,3.863,3.8633,3.8635,0,3.7613,3.7618,3.7706,3.7798,3.7871,3.7944,3.8013,3.8064,3.8079,3.8153,3.826,3.8325,3.8452,3.8556,3.8651,3.8689,3.8666,3.8665,3.8694,3.8697,3.8688,3.8695,3.8362,3.8657,3.8655,3.8653,3.8652,3.8651,3.7795,3.7879,3.7944,3.8043,3.8096,3.8161,3.8242,3.8274,3.8364,3.8467,3.8465,3.8584,3.8651,3.8776,3.8821,3.8915,3.8879,3.8921,3.8932,3.8943,3.8953,3.8672,3.8932,3.8931,3.8931,3.893,3.893,0,3.805,3.809,3.8181,3.8278,3.8356,3.8325,3.84,3.8468,3.8572,3.8636,3.8718,3.8843,3.8943,3.8987,3.9085,3.9152,3.9143,3.9178,3.9173,3.9183,3.8978,3.8944,3.9183,3.9183,3.9183,3.9183,3.9183,3.9183,3.8192,3.8331,3.8344,3.8509,3.8549,3.8664,3.871,3.877,3.8821,3.8961,3.9043,3.9071,3.9128,3.923,3.9321,3.9331,3.9369,3.9409,3.9414,3.9223,3.9197,3.9173,3.914,3.9417,3.9417,3.9611,3.9613,3.9614]},{"header":{"parameterUnit":"m.s-1","parameterCategory":1,"la1":30.2991,"la2":30.254,"lo1":-89.0895,"lo2":-89.0444,"dy":0.0017,"dx":0.0017,"nx":28,"ny":28,"refTime":"2026-02-04T09:00:00:Z","depth":0,"parameterNumber":3,"parameterNumberName":"V-component_of_WINDS"},"data":[0,0,0,0,0,0,0,0,0,0,0,0,0,0,0,0,0,0,0,0,0,0,0,0,0,0,0,0,0,0,0,0,0,0,0,0,0,0,0,0,0,0,0,0,0,0,0,0,0,0,0,0,0,0,0,0,0,0,-0.9688,-0.9689,0,-0.9792,-0.9793,-0.9794,-0.9805,-0.9804,-0.9803,-0.9802,-0.9911,-0.9915,-0.9918,0,0,0,0,0,0,0,0,0,0,0,0,0,-0.9501,-0.9505,-0.9687,-0.9689,-0.969,-0.9791,-0.9793,-0.9794,-0.9806,-0.9804,-0.9803,-0.9802,-0.991,-0.9914,-0.9919,0,0,0,0,0,0,0,0,0,0,0,0,0,-0.9591,-0.9506,-0.9687,-0.9708,-0.9711,-0.9791,-0.9793,-0.9795,-0.9806,-0.9804,-0.9803,-0.9801,-0.9908,-0.9914,-0.9919,-0.9987,0,0,-0.9937,-0.994,0,0,0,0,0,0,0,0,-0.9586,-0.9598,-0.9703,-0.9707,-0.971,-0.9784,-0.9767,-0.9859,-0.9806,-0.977,-0.9802,-0.98,-0.987,-0.9879,-0.9902,-0.9992,-0.9997,-0.9938,-0.9941,-0.9944,-0.9945,0,0,0,0,0,0,0,-0.958,-0.9594,-0.9729,-0.9705,-0.9709,-0.9713,-0.9724,-0.9785,-0.9828,-0.9773,-0.9774,-0.9786,-0.9871,-0.9896,-0.9905,-0.9998,-0.9938,-0.9943,-0.9946,-0.9949,-1.0152,-1.0154,0,0,0,0,0,0,-0.957,-0.9589,-0.9725,-0.9732,-0.9643,-0.9717,-0.973,-0.9762,-0.9827,-0.9835,-0.9787,-0.9786,-0.9887,-0.9898,-0.9908,-0.9993,-0.9944,-0.9949,-0.9952,-1.015,-1.0152,-1.0154,0,0,0,0,0,0,-0.9566,-0.9582,-0.9721,-0.9661,-0.9679,-0.9722,-0.9758,-0.9765,-0.9789,-0.9838,-0.9846,-0.9804,-0.9886,-0.99,-0.9968,-0.9997,-0.9952,-0.9957,-1.0148,-1.0151,-1.0153,-1.0163,0,0,0,0,0,0,-0.956,-0.958,-0.9605,-0.9661,-0.9682,-0.9778,-0.976,-0.9768,-0.9799,-0.9799,-0.9856,-0.9864,-0.9886,-0.9959,-0.9974,-1.0004,-0.9962,-1.0145,-1.0149,-1.0152,-1.016,-1.0165,-1.017,0,0,0,0,0,-0.9553,-0.9604,-0.9607,-0.9623,-0.9714,-0.9779,-0.9791,-0.9815,-0.9801,-0.9828,-0.9859,-0.9862,-0.9992,-0.9966,-0.9982,-1.0015,-1.0144,-1.0148,-1.0152,-1.0158,-1.0164,-1.017,0,0,0,0,0,0,-0.9551,-0.9612,-0.9615,-0.9685,-0.9727,-0.9781,-0.9815,-0.9821,-0.9869,-0.9866,-0.9894,-0.9907,-0.9974,-1.0001,-0.9972,-1.0085,-1.0066,-1.0074,-1.0065,-1.0072,-1.0077,-1.0069,-0.9966,0,0,0,0,0,-0.9558,-0.9606,-0.9656,-0.9713,-0.9734,-0.9771,-0.98,-0.9815,-0.986,-0.9878,-0.9914,-0.9958,-1.0009,-1.0042,-1.0091,-1.0164,-1.0178,-1.0195,-1.02,-1.0204,-1.0211,-1.0253,-1.0262,-1.0168,-1.0168,-1.0168,0,0,-0.9575,-0.9613,-0.9641,-0.9714,-0.9748,-0.9797,-0.9786,-0.9838,-0.9875,-0.9886,-0.9952,-0.9981,-1.0032,-1.0103,-1.0136,-1.0128,-1.024,-1.021,-1.0212,-1.0217,-1.0258,-1.0267,-1.0275,-1.0171,-1.0171,-1.017,0,0,-0.9629,-0.9663,-0.9714,-0.9749,-0.9801,-0.9826,-0.9838,-0.9892,-0.9911,-0.9978,-0.9988,-1.0033,-1.0119,-1.0156,-1.0186,-1.0256,-1.0261,-1.0272,-1.0299,-1.034,-1.0347,-1.0354,-1.038,-1.0389,-1.0278,-1.0278,-1.0278,0,-0.9643,-0.9716,-0.974,-0.9793,-0.9825,-0.9837,-0.989,-0.9923,-0.9989,-1.0011,-1.0001,-1.0111,-1.0146,-1.0227,-1.0244,-1.0267,-1.0284,-1.0265,-1.0344,-1.0351,-1.0357,-1.0383,-1.0393,-1.0279,-1.0279,-1.0279,-1.0279,0,-0.9731,-0.9782,-0.9818,-0.9881,-0.9917,-0.997,-1.0003,-1.0037,-1.0049,-1.0075,-1.0144,-1.0187,-1.0246,-1.0266,-1.0278,-1.0349,-1.0343,-1.0338,-1.0319,-1.0367,-1.0391,-1.0401,-1.028,-1.028,-1.028,-1.0279,0,0,-0.9786,-0.9863,-0.9876,-0.9905,-0.9964,-1.0005,-1.0059,-1.0116,-1.0145,-1.0191,-1.0238,-1.0311,-1.0308,-1.0342,-1.0358,-1.0394,-1.0449,-1.0386,-1.0387,-1.0397,-1.0532,-1.0535,-1.0546,-1.0453,-1.0455,-1.0456,-1.0528,0,-0.9848,-0.9944,-0.9968,-1.005,-1.0098,-1.0111,-1.0158,-1.0201,-1.0227,-1.0273,-1.0302,-1.0354,-1.0345,-1.0366,-1.0402,-1.0435,-1.0477,-1.043,-1.0498,-1.05,-1.0485,-1.0559,-1.0563,-1.0628,-1.0537,-1.0539,-1.054,0,-0.9933,-0.998,-1.0067,-1.0121,-1.0143,-1.0184,-1.024,-1.0283,-1.0332,-1.0349,-1.0387,-1.0401,-1.0459,-1.0438,-1.052,-1.0487,-1.0517,-1.0538,-1.0541,-1.0548,-1.0523,-1.057,-1.0649,-1.0659,-1.0555,-1.0554,-1.0553,0,-0.9966,-1.0051,-1.0115,-1.0139,-1.0204,-1.0233,-1.0262,-1.0309,-1.0342,-1.0391,-1.0414,-1.0469,-1.0499,-1.0542,-1.0571,-1.0552,-1.0651,-1.0631,-1.0668,-1.0667,-1.0688,-1.0687,-1.0774,-1.0706,-1.0706,-1.0706,-1.0705,0,-1.0033,-1.0086,-1.013,-1.0169,-1.023,-1.0257,-1.0317,-1.0346,-1.0388,-1.0434,-1.0448,-1.0491,-1.0527,-1.0575,-1.0598,-1.0663,-1.0677,-1.0693,-1.0699,-1.0692,-1.069,-1.0712,-1.0709,-1.0708,-1.0708,-1.0707,-1.0707,0,-1.008,-1.0112,-1.0182,-1.0237,-1.0253,-1.0295,-1.0343,-1.0382,-1.0409,-1.0467,-1.0483,-1.0526,-1.0584,-1.0617,-1.0689,-1.0705,-1.0778,-1.0781,-1.0761,-1.0764,-1.0799,-1.0796,-1.0905,-1.0921,-1.0841,-1.0841,-1.0842,0,-1.0121,-1.0162,-1.0222,-1.0254,-1.0282,-1.0333,-1.0367,-1.0397,-1.0432,-1.0492,-1.0525,-1.0583,-1.0632,-1.0724,-1.0762,-1.0819,-1.0824,-1.0859,-1.0833,-1.0826,-1.0826,-1.0824,-1.0829,-1.0863,-1.0864,-1.0864,-1.0865,0,-1.0191,-1.0205,-1.0253,-1.0308,-1.0349,-1.0393,-1.0437,-1.0463,-1.05,-1.0539,-1.0599,-1.0636,-1.0711,-1.077,-1.083,-1.0861,-1.087,-1.0873,-1.0884,-1.0878,-1.0866,-1.0875,-1.0775,-1.087,-1.087,-1.0869,-1.0869,-1.0869,-1.0237,-1.0274,-1.0323,-1.0377,-1.0414,-1.0455,-1.0495,-1.0528,-1.0577,-1.064,-1.0655,-1.0717,-1.0767,-1.0848,-1.0881,-1.0932,-1.0926,-1.0942,-1.0946,-1.095,-1.0952,-1.0857,-1.0942,-1.0942,-1.0942,-1.0942,-1.0942,0,-1.0308,-1.034,-1.039,-1.0452,-1.0495,-1.0499,-1.0549,-1.0585,-1.064,-1.0685,-1.0733,-1.0802,-1.0859,-1.0903,-1.0962,-1.0994,-1.1,-1.1009,-1.1007,-1.1015,-1.0953,-1.0938,-1.1003,-1.1003,-1.1003,-1.1003,-1.1003,-1.1003,-1.0351,-1.0415,-1.0435,-1.0519,-1.0551,-1.0612,-1.064,-1.0679,-1.0716,-1.0792,-1.084,-1.0867,-1.0913,-1.0976,-1.1029,-1.1041,-1.1063,-1.1071,-1.1083,-1.1025,-1.1019,-1.1013,-1.0998,-1.1075,-1.1075,-1.1141,-1.1141,-1.1142]}]]